Preview of NWS' New Version of Forecast
This preview is not operational and should not be used for support decisions.

Regional Weather Roundup (RWR)

Issued by National Weather Service (NWS)

                            
000
ASUS45 KBOI 210410
RWRID 

IDAHO REGIONAL WEATHER ROUNDUP
NATIONAL WEATHER SERVICE BOISE ID
1000 PM MDT SAT APR 20 2019

NOTE: "FAIR" INDICATES FEW OR NO CLOUDS BELOW 12000 FEET
WITH NO SIGNIFICANT WEATHER AND/OR OBSTRUCTIONS TO VISIBILITY

IDZ012-014-210500-
SOUTHWEST IDAHO

  
CITY           SKY/WX    TMP DP  RH WIND       PRES   REMARKS
BOISE          CLOUDY    52  47  83 W9        29.83R                  
CALDWELL       CLOUDY    52  46  80 W14       29.85R                  
MOUNTAIN HOME  CLOUDY    46  46 100 W15       29.84R                  
$$

IDZ016-017-210500-
SOUTHCENTRAL IDAHO

  
CITY           SKY/WX    TMP DP  RH WIND       PRES   REMARKS
BURLEY         LGT RAIN  51  47  86 W12       29.83R                  
JEROME         CLOUDY    49  47  93 W7        29.83R                  
TWIN FALLS     LGT RAIN  49  46  90 SW9       29.84R                  
$$

IDZ019>023-210500-
SOUTHEAST IDAHO

  
CITY           SKY/WX    TMP DP  RH WIND       PRES   REMARKS
IDAHO FALLS    CLOUDY    57  37  47 S16       29.78R                  
POCATELLO      CLOUDY    54  43  66 S14       29.82R                  
REXBURG        CLOUDY    56  36  47 S8        29.76R                  
$$

IDZ006-010-011-018-031-032-210500-
CENTRAL IDAHO MOUNTAINS

  
CITY           SKY/WX    TMP DP  RH WIND       PRES   REMARKS
MCCALL         LGT RAIN  39  37  92 VRB5      29.87R                  
HAILEY         RAIN      45  43  93 NW7       29.87S                  
STANLEY          N/A     37  34  89 CALM      29.88R                  
SALMON         LGT RAIN  50  47  89 SE6       29.81R                  
CHALLIS        LGT RAIN  48  43  82 SE8       29.84R                  
$$

IDZ002-004-006-007-026-210500-
NORTHERN IDAHO

  
CITY           SKY/WX    TMP DP  RH WIND       PRES   REMARKS
LEWISTON       CLOUDY    57  42  57 S7        29.92R                  
LOWELL         NOT AVBL                                               
COEUR D'ALENE  MOCLDY    46  44  93 SE3       29.93R                  
MULLAN PASS    FOG       37  35  92 N5        29.93R VSB 1/4 WCI  33  
$$